Weather History for Charles City, IA

Change the Weather History Date:

Wednesday, November 30, 2011

  Actual Average Record
Temperature  
Mean Temperature 32 °F -  
Max Temperature 48 °F 35 °F 58 °F (1962)
Min Temperature 15 °F 19 °F -7 °F (1964)
Degree Days  
Heating Degree Days 34    
Moisture  
Dew Point 9 °F    
Average Humidity 47    
Maximum Humidity 73    
Minimum Humidity 13    
Precipitation  
Precipitation 0.00 in - - ()
Sea Level Pressure  
Sea Level Pressure 30.01 in    
Wind  
Wind Speed 7 mph (SSW)    
Max Wind Speed 17 mph    
Max Gust Speed 22 mph    
Visibility 10 miles    
Events      
Averages and records for this station are not official NWS values.
T = Trace of Precipitation, MM = Missing Value Source: NWS Daily Summary

Daily Weather History Graph

Daily Weather History Graph

Search for Another Location

Airport:

Trip Planner

Search our weather history database for the weather conditions in past years. The results will help you decide how hot, cold, wet, or windy it might be!

Date:

Astronomy

Nov. 30, 2011 Rise Set
Actual Time 7:20 AM CST 4:37 PM CST
Civil Twilight 6:49 AM CST 5:08 PM CST
Nautical Twilight 6:13 AM CST 5:44 PM CST
Astronomical Twilight 5:39 AM CST 6:18 PM CST
Moon 11:34 AM CST 10:40 PM CST
Length of Visible Light 10h 19m
Length of Day
9h 16m
Waxing Crescent, 34% of the Moon is Illuminated
Nov 30
Waxing Crescent
Dec 2
First Quarter
Dec 10
Full
Dec 17
Last Quarter
Dec 24
New

Hourly Weather History & Observations

Time (CST) Temp. Windchill Dew Point Humidity Pressure Visibility Wind Dir Wind Speed Gust Speed Precip Events Conditions
12:15 AM 19.4 °F 12.8 °F 10.4 °F 68% 30.12 in 10.0 mi WNW 4.6 mph - N/A   Clear
12:35 AM 19.4 °F 14.3 °F 10.4 °F 68% 30.10 in 10.0 mi West 3.5 mph - N/A   Clear
12:36 AM 19.4 °F 12.8 °F 10.4 °F 68% 30.10 in 10.0 mi West 4.6 mph - N/A   Clear
12:55 AM 19.4 °F 14.3 °F 10.4 °F 68% 30.10 in 10.0 mi West 3.5 mph - N/A   Clear
1:15 AM 19.4 °F 11.5 °F 10.4 °F 68% 30.10 in 10.0 mi WNW 5.8 mph - N/A   Clear
2:18 AM 17.6 °F 12.3 °F 10.4 °F 73% 30.08 in 10.0 mi West 3.5 mph - N/A   Clear
2:35 AM 17.6 °F 12.3 °F 10.4 °F 73% 30.08 in 10.0 mi West 3.5 mph - N/A   Clear
2:55 AM 17.6 °F 12.3 °F 10.4 °F 73% 30.07 in 10.0 mi West 3.5 mph - N/A   Clear
3:15 AM 15.8 °F 8.6 °F 8.6 °F 73% 30.06 in 10.0 mi West 4.6 mph - N/A   Clear
3:35 AM 17.6 °F - 10.4 °F 73% 30.06 in 10.0 mi Calm Calm - N/A   Clear
3:55 AM 17.6 °F - 10.4 °F 73% 30.05 in 10.0 mi Calm Calm - N/A   Clear
4:15 AM 19.4 °F - 10.4 °F 68% 30.05 in 10.0 mi Calm Calm - N/A   Clear
4:35 AM 15.8 °F - 8.6 °F 73% 30.05 in 10.0 mi Calm Calm - N/A   Clear
4:55 AM 17.6 °F 12.3 °F 10.4 °F 73% 30.05 in 10.0 mi South 3.5 mph - N/A   Clear
5:15 AM 17.6 °F 12.3 °F 10.4 °F 73% 30.05 in 10.0 mi South 3.5 mph - N/A   Clear
5:35 AM 17.6 °F - 10.4 °F 73% 30.04 in 10.0 mi Calm Calm - N/A   Clear
5:55 AM 17.6 °F - 10.4 °F 73% 30.05 in 10.0 mi Calm Calm - N/A   Clear
6:15 AM 17.6 °F - 10.4 °F 73% 30.05 in 10.0 mi Calm Calm - N/A   Clear
6:35 AM 17.6 °F 12.3 °F 10.4 °F 73% 30.05 in 10.0 mi SSE 3.5 mph - N/A   Clear
6:55 AM 15.8 °F 8.6 °F 8.6 °F 73% 30.04 in 10.0 mi South 4.6 mph - N/A   Clear
7:15 AM 17.6 °F 9.3 °F 10.4 °F 73% 30.04 in 10.0 mi South 5.8 mph - N/A   Clear
7:35 AM 17.6 °F 9.3 °F 10.4 °F 73% 30.03 in 10.0 mi South 5.8 mph - N/A   Clear
7:55 AM 17.6 °F 10.7 °F 10.4 °F 73% 30.04 in 10.0 mi South 4.6 mph - N/A   Clear
8:15 AM 21.2 °F 13.6 °F 12.2 °F 68% 30.03 in 10.0 mi South 5.8 mph - N/A   Clear
8:35 AM 23.0 °F 14.7 °F 14.0 °F 68% 30.03 in 10.0 mi South 6.9 mph - N/A   Clear
8:55 AM 24.8 °F 16.1 °F 14.0 °F 64% 30.03 in 10.0 mi South 8.1 mph - N/A   Clear
9:15 AM 26.6 °F 17.5 °F 15.8 °F 64% 30.02 in 10.0 mi South 9.2 mph - N/A   Clear
9:35 AM 28.4 °F 20.4 °F 15.8 °F 59% 30.03 in 10.0 mi South 8.1 mph - N/A   Clear
9:55 AM 32.0 °F 24.2 °F 15.8 °F 51% 30.03 in 10.0 mi SSW 9.2 mph - N/A   Clear
10:15 AM 33.8 °F 25.3 °F 14.0 °F 44% 30.02 in 10.0 mi South 11.5 mph - N/A   Clear
10:35 AM 35.6 °F 28.0 °F 12.2 °F 38% 30.01 in 10.0 mi SSW 10.4 mph - N/A   Clear
10:55 AM 39.2 °F 31.6 °F 8.6 °F 28% 30.01 in 10.0 mi SSW 12.7 mph - N/A   Clear
11:15 AM 41.0 °F 34.7 °F 6.8 °F 24% 30.01 in 10.0 mi SSW 10.4 mph - N/A   Clear
11:55 AM 42.8 °F 35.8 °F -0.4 °F 16% 29.98 in 10.0 mi SSW 13.8 mph - N/A   Clear
12:15 PM 44.6 °F 38.1 °F 1.4 °F 17% 29.97 in 10.0 mi South 13.8 mph - N/A   Clear
12:35 PM 44.6 °F 38.4 °F -0.4 °F 15% 29.96 in 10.0 mi SSW 12.7 mph 21.9 mph N/A   Clear
12:55 PM 44.6 °F 37.8 °F 1.4 °F 17% 29.96 in 10.0 mi SSW 15.0 mph - N/A   Clear
1:15 PM 44.6 °F 38.1 °F 3.2 °F 18% 29.95 in 10.0 mi South 13.8 mph - N/A   Clear
1:35 PM 44.6 °F 37.8 °F 1.4 °F 17% 29.95 in 10.0 mi South 15.0 mph - N/A   Clear
1:55 PM 46.4 °F 40.1 °F 1.4 °F 16% 29.94 in 10.0 mi South 15.0 mph - N/A   Clear
2:15 PM 46.4 °F 40.4 °F 1.4 °F 16% 29.93 in 10.0 mi South 13.8 mph - N/A   Clear
2:35 PM 48.2 °F - -0.4 °F 13% 29.93 in 10.0 mi South 17.3 mph - N/A   Clear
2:55 PM 46.4 °F 40.7 °F -0.4 °F 14% 29.93 in 10.0 mi South 12.7 mph - N/A   Clear
3:15 PM 44.6 °F 37.4 °F 3.2 °F 18% 29.93 in 10.0 mi South 16.1 mph - N/A   Clear
3:35 PM 44.6 °F 38.1 °F 6.8 °F 21% 29.93 in 10.0 mi South 13.8 mph - N/A   Clear
3:55 PM 44.6 °F 37.8 °F 8.6 °F 23% 29.92 in 10.0 mi South 15.0 mph - N/A   Clear
4:15 PM 42.8 °F 35.4 °F 10.4 °F 27% 29.92 in 10.0 mi South 15.0 mph - N/A   Clear
4:35 PM 42.8 °F 35.4 °F 10.4 °F 27% 29.93 in 10.0 mi South 15.0 mph - N/A   Clear
4:55 PM 41.0 °F 34.3 °F 10.4 °F 29% 29.93 in 10.0 mi South 11.5 mph - N/A   Clear
5:15 PM 41.0 °F 33.1 °F 10.4 °F 29% 29.94 in 10.0 mi South 15.0 mph - N/A   Clear
5:35 PM 41.0 °F 33.1 °F 10.4 °F 29% 29.94 in 10.0 mi South 15.0 mph - N/A   Clear
5:55 PM 39.2 °F 30.8 °F 10.4 °F 31% 29.95 in 10.0 mi South 15.0 mph - N/A   Clear
6:15 PM 39.2 °F 31.2 °F 10.4 °F 31% 29.95 in 10.0 mi South 13.8 mph - N/A   Clear
6:35 PM 39.2 °F 31.2 °F 10.4 °F 31% 29.96 in 10.0 mi South 13.8 mph - N/A   Clear
6:55 PM 39.2 °F 33.0 °F 12.2 °F 33% 29.98 in 10.0 mi South 9.2 mph - N/A   Clear
7:15 PM 37.4 °F 29.8 °F 10.4 °F 33% 29.98 in 10.0 mi South 11.5 mph - N/A   Clear
7:35 PM 37.4 °F 30.3 °F 12.2 °F 36% 29.98 in 10.0 mi South 10.4 mph - N/A   Clear
7:55 PM 37.4 °F 30.8 °F 12.2 °F 36% 29.99 in 10.0 mi South 9.2 mph - N/A   Clear
8:15 PM 37.4 °F 31.4 °F 12.2 °F 36% 29.99 in 10.0 mi South 8.1 mph - N/A   Clear
8:35 PM 35.6 °F 29.9 °F 14.0 °F 41% 30.00 in 10.0 mi South 6.9 mph - N/A   Clear
9:15 PM 35.6 °F 29.2 °F 15.8 °F 44% 30.02 in 10.0 mi South 8.1 mph - N/A   Clear
9:35 PM 33.8 °F 27.7 °F 15.8 °F 48% 30.03 in 10.0 mi South 6.9 mph - N/A   Clear
9:55 PM 33.8 °F 27.7 °F 15.8 °F 48% 30.03 in 10.0 mi South 6.9 mph - N/A   Clear
10:15 PM 33.8 °F 27.0 °F 15.8 °F 48% 30.03 in 10.0 mi SSE 8.1 mph - N/A   Clear
10:35 PM 33.8 °F 26.4 °F 15.8 °F 48% 30.04 in 10.0 mi SSE 9.2 mph - N/A   Clear
11:15 PM 33.8 °F 27.0 °F 15.8 °F 48% 30.06 in 10.0 mi South 8.1 mph - N/A   Clear
11:35 PM 33.8 °F 27.0 °F 15.8 °F 48% 30.06 in 10.0 mi South 8.1 mph - N/A   Clear
11:55 PM 33.8 °F 27.7 °F 15.8 °F 48% 30.06 in 10.0 mi South 6.9 mph - N/A   Clear